| time (UTC) | temp C | wind direction | speed KPH | gust KPH | rain 1hr cm | rain 24hr cm | rain mn cm | humidity % | barometer mb |
| 20260904163411 | 30 | 264 | 3.2 | 4.8 | 0.00 | 4.09 | 4.04 | 73 | 1013.9 |
| 20260904162411 | 30 | 12 | 1.6 | 4.8 | 0.00 | 4.09 | 4.04 | 73 | 1014.0 |
| 20260904161412 | 29 | 265 | 0.0 | 3.2 | 0.00 | 4.09 | 4.04 | 75 | 1014.0 |
| 20260904160511 | 29 | 265 | 0.0 | 4.8 | 0.00 | 4.09 | 4.04 | 76 | 1014.2 |
| 20260904155411 | 29 | 252 | 3.2 | 3.2 | 0.00 | 4.09 | 4.04 | 75 | 1014.3 |
| 20260904154411 | 28 | 244 | 0.0 | 1.6 | 0.00 | 4.09 | 4.04 | 77 | 1014.3 |
| 20260904153411 | 28 | 137 | 0.0 | 1.6 | 0.00 | 4.09 | 4.04 | 78 | 1014.4 |
| 20260904152411 | 28 | 245 | 0.0 | 3.2 | 0.00 | 4.09 | 4.04 | 79 | 1014.4 |
| 20260904151416 | 28 | 222 | 0.0 | 0.0 | 0.00 | 4.09 | 4.04 | 78 | 1014.3 |
| 20260904150411 | 28 | 287 | 0.0 | 3.2 | 0.00 | 4.09 | 4.04 | 80 | 1014.3 |
| 20260904145411 | 27 | 277 | 0.0 | 1.6 | 0.00 | 4.09 | 4.04 | 78 | 1014.3 |
| 20260904144411 | 27 | 346 | 0.0 | 0.0 | 0.00 | 4.09 | 4.04 | 81 | 1014.4 |
| 20260904143411 | 27 | 248 | 1.6 | 4.8 | 0.00 | 4.09 | 4.04 | 81 | 1014.5 |
| 20260904142411 | 27 | 258 | 0.0 | 4.8 | 0.00 | 4.09 | 4.04 | 81 | 1014.6 |
| 20260904141412 | 27 | 211 | 0.0 | 0.0 | 0.00 | 4.09 | 4.04 | 84 | 1014.5 |
| 20260904140411 | 26 | 211 | 0.0 | 3.2 | 0.00 | 4.09 | 4.04 | 86 | 1014.4 |
| 20260904134411 | 25 | 213 | 0.0 | 1.6 | 0.00 | 4.09 | 4.04 | 91 | 1014.4 |
| 20260904132412 | 25 | 213 | 0.0 | 0.0 | 0.00 | 4.09 | 4.04 | 93 | 1014.4 |
| 20260904131411 | 24 | 213 | 0.0 | 0.0 | 0.00 | 4.09 | 4.04 | 93 | 1014.4 |
| 20260904130412 | 24 | 213 | 0.0 | 0.0 | 0.00 | 4.09 | 4.04 | 93 | 1014.4 |
| 20260904125412 | 24 | 210 | 0.0 | 0.0 | 0.00 | 4.09 | 4.04 | 94 | 1014.4 |
| 20260904124412 | 24 | 53 | 0.0 | 0.0 | 0.00 | 4.09 | 4.04 | 94 | 1014.5 |
| 20260904122412 | 24 | 49 | 0.0 | 0.0 | 0.00 | 4.09 | 4.04 | 94 | 1014.7 |
| 20260904121412 | 24 | 48 | 0.0 | 0.0 | 0.00 | 4.09 | 4.04 | 94 | 1014.9 |
| 20260904120412 | 23 | 48 | 0.0 | 0.0 | 0.00 | 4.09 | 4.04 | 94 | 1014.9 |
| 20260904115412 | 23 | 48 | 0.0 | 0.0 | 0.00 | 4.09 | 4.04 | 94 | 1014.8 |
| 20260904114412 | 23 | 48 | 0.0 | 0.0 | 0.00 | 4.09 | 4.04 | 94 | 1014.8 |
| 20260904113411 | 23 | 48 | 0.0 | 0.0 | 0.00 | 4.09 | 4.04 | 94 | 1014.8 |
| 20260904060437 | 22 | 233 | 0.0 | 1.6 | 3.28 | 4.04 | 4.01 | 92 | 1014.4 |
| 20260904055437 | 22 | 233 | 0.0 | 1.6 | 3.56 | 4.01 | 3.96 | 92 | 1015.0 |
| 20260904054437 | 22 | 233 | 0.0 | 0.0 | 3.51 | 3.91 | 3.86 | 92 | 1016.0 |
| 20260904053437 | 23 | 233 | 0.0 | 3.2 | 3.10 | 3.48 | 3.45 | 92 | 1017.1 |
| 20260904052507 | 23 | 132 | 0.0 | 1.6 | 2.49 | 2.90 | 2.84 | 92 | 1016.5 |
| 20260904051437 | 23 | 313 | 3.2 | 11.3 | 1.83 | 2.01 | 2.01 | 91 | 1015.9 |
| 20260904050436 | 23 | 38 | 0.0 | 14.5 | 0.81 | 0.79 | 0.79 | 91 | 1016.4 |
| 20260904045437 | 23 | 323 | 4.8 | 4.8 | 0.46 | 0.46 | 0.41 | 91 | 1015.1 |
| 20260904044437 | 22 | 118 | 0.0 | 0.0 | 0.41 | 0.41 | 0.36 | 90 | 1014.5 |
| 20260904043437 | 23 | 5 | 0.0 | 0.0 | 0.41 | 0.41 | 0.36 | 91 | 1014.4 |
| 20260904042507 | 23 | 102 | 1.6 | 1.6 | 0.41 | 0.41 | 0.36 | 89 | 1014.6 |
| 20260904040437 | 25 | 265 | 3.2 | 8.0 | 0.03 | 0.03 | 0.03 | 84 | 1014.8 |
| 20260904035437 | 26 | 186 | 16.1 | 16.1 | 0.00 | 0.00 | 0.00 | 86 | 1014.2 |
| 20260904034437 | 26 | 215 | 6.4 | 6.4 | 0.00 | 0.00 | 0.00 | 89 | 1014.0 |
| 20260904033437 | 27 | 30 | 0.0 | 0.0 | 0.00 | 0.00 | 0.00 | 89 | 1013.1 |
| 20260904032437 | 26 | 30 | 0.0 | 0.0 | 0.00 | 0.00 | 0.00 | 89 | 1013.3 |
| 20260904031437 | 26 | 30 | 0.0 | 0.0 | 0.00 | 0.00 | 0.00 | 89 | 1013.6 |
| 20260904030437 | 26 | 30 | 0.0 | 0.0 | 0.00 | 0.00 | 0.00 | 89 | 1013.5 |
| 20260904024437 | 26 | 30 | 0.0 | 0.0 | 0.00 | 0.00 | 0.00 | 89 | 1013.8 |
| 20260904023437 | 26 | 30 | 0.0 | 0.0 | 0.00 | 0.00 | 0.00 | 89 | 1014.0 |
| 20260904022437 | 26 | 30 | 0.0 | 0.0 | 0.00 | 0.00 | 0.00 | 88 | 1014.0 |
| 20260904021437 | 26 | 30 | 0.0 | 0.0 | 0.00 | 0.00 | 0.00 | 88 | 1013.9 |
| 20260904020507 | 26 | 30 | 0.0 | 0.0 | 0.00 | 0.00 | 0.00 | 88 | 1013.8 |
| 20260904015437 | 27 | 30 | 0.0 | 0.0 | 0.00 | 0.00 | 0.00 | 88 | 1013.8 |
| 20260904014437 | 26 | 30 | 0.0 | 0.0 | 0.00 | 0.00 | 0.00 | 88 | 1013.9 |
| 20260904013437 | 27 | 30 | 0.0 | 0.0 | 0.00 | 0.00 | 0.00 | 88 | 1014.0 |
| 20260904012437 | 27 | 30 | 0.0 | 0.0 | 0.00 | 0.00 | 0.00 | 88 | 1014.3 |
| 20260904010437 | 27 | 30 | 0.0 | 0.0 | 0.00 | 0.00 | 0.00 | 88 | 1014.6 |
| 20260904005437 | 27 | 30 | 0.0 | 0.0 | 0.00 | 0.00 | 0.00 | 87 | 1014.8 |
| 20260904004437 | 27 | 30 | 0.0 | 0.0 | 0.00 | 0.00 | 0.00 | 87 | 1014.7 |
| 20260904002437 | 27 | 30 | 0.0 | 0.0 | 0.00 | 0.00 | 0.00 | 86 | 1014.6 |
| 20260904001437 | 27 | 30 | 0.0 | 0.0 | 0.00 | 0.00 | 0.00 | 86 | 1014.4 |
| 20260904000437 | 28 | 30 | 0.0 | 0.0 | 0.00 | 0.00 | 0.00 | 85 | 1014.2 |
| 20260903235437 | 27 | 30 | 0.0 | 0.0 | 0.00 | 0.00 | 0.00 | 85 | 1014.1 |
| 20260903234437 | 28 | 30 | 0.0 | 0.0 | 0.00 | 0.00 | 0.00 | 84 | 1013.9 |
| 20260903232437 | 28 | 236 | 0.0 | 0.0 | 0.00 | 0.00 | 0.00 | 83 | 1013.8 |
| 20260903231437 | 29 | 223 | 0.0 | 0.0 | 0.00 | 0.00 | 0.00 | 82 | 1013.9 |
| 20260903230437 | 30 | 222 | 0.0 | 0.0 | 0.00 | 0.00 | 0.00 | 81 | 1013.8 |
| 20260903225437 | 30 | 222 | 0.0 | 0.0 | 0.00 | 0.00 | 0.00 | 80 | 1013.8 |
| 20260903224437 | 30 | 222 | 0.0 | 0.0 | 0.00 | 0.00 | 0.00 | 78 | 1013.7 |
| 20260903223437 | 30 | 222 | 0.0 | 0.0 | 0.00 | 0.00 | 0.00 | 78 | 1013.7 |
| 20260903222437 | 30 | 223 | 0.0 | 0.0 | 0.00 | 0.00 | 0.00 | 79 | 1013.7 |
| 20260903221437 | 31 | 223 | 0.0 | 0.0 | 0.00 | 0.00 | 0.00 | 77 | 1013.8 |
| 20260903220437 | 31 | 223 | 0.0 | 0.0 | 0.00 | 0.00 | 0.00 | 76 | 1013.9 |
| 20260903215437 | 31 | 223 | 0.0 | 0.0 | 0.00 | 0.00 | 0.00 | 75 | 1013.9 |
| 20260903214437 | 31 | 222 | 0.0 | 0.0 | 0.00 | 0.00 | 0.00 | 74 | 1014.0 |
| 20260903213437 | 31 | 241 | 0.0 | 1.6 | 0.00 | 0.00 | 0.00 | 74 | 1013.9 |
| 20260903212507 | 31 | 294 | 1.6 | 4.8 | 0.00 | 0.00 | 0.00 | 73 | 1014.0 |
| 20260903210437 | 31 | 225 | 1.6 | 3.2 | 0.00 | 0.00 | 0.00 | 71 | 1014.0 |
| 20260903205437 | 31 | 285 | 3.2 | 3.2 | 0.00 | 0.00 | 0.00 | 74 | 1014.1 |
| 20260903204438 | 31 | 228 | 0.0 | 1.6 | 0.00 | 0.00 | 0.00 | 69 | 1014.2 |
| 20260903203437 | 31 | 284 | 0.0 | 1.6 | 0.00 | 0.00 | 0.00 | 74 | 1014.4 |
| 20260903202437 | 31 | 279 | 1.6 | 1.6 | 0.00 | 0.00 | 0.00 | 77 | 1014.6 |
| 20260903201437 | 31 | 279 | 0.0 | 1.6 | 0.00 | 0.00 | 0.00 | 75 | 1014.7 |
| 20260903200507 | 31 | 288 | 0.0 | 3.2 | 0.00 | 0.00 | 0.00 | 77 | 1014.7 |
| 20260903195437 | 30 | 286 | 3.2 | 4.8 | 0.00 | 0.00 | 0.00 | 75 | 1014.7 |
| 20260903194437 | 30 | 260 | 0.0 | 0.0 | 0.00 | 0.00 | 0.00 | 78 | 1015.0 |
| 20260903193437 | 31 | 228 | 0.0 | 0.0 | 0.00 | 0.00 | 0.00 | 75 | 1014.9 |
| 20260903192437 | 31 | 263 | 0.0 | 4.8 | 0.00 | 0.00 | 0.00 | 75 | 1014.8 |
| 20260903191437 | 31 | 292 | 1.6 | 1.6 | 0.00 | 0.00 | 0.00 | 76 | 1014.9 |
| 20260903190437 | 31 | 233 | 0.0 | 1.6 | 0.00 | 0.00 | 0.00 | 76 | 1014.9 |
| 20260903185437 | 31 | 239 | 3.2 | 3.2 | 0.00 | 0.05 | 0.00 | 75 | 1015.0 |
| 20260903184437 | 31 | 234 | 0.0 | 4.8 | 0.00 | 0.05 | 0.00 | 77 | 1015.2 |
| 20260903182437 | 31 | 302 | 1.6 | 4.8 | 0.00 | 0.05 | 0.00 | 77 | 1015.4 |
| 20260903181437 | 31 | 279 | 0.0 | 4.8 | 0.00 | 0.05 | 0.00 | 78 | 1015.7 |
| 20260903180437 | 31 | 227 | 0.0 | 1.6 | 0.00 | 0.05 | 0.00 | 78 | 1015.9 |
| 20260903175437 | 30 | 295 | 1.6 | 3.2 | 0.00 | 0.05 | 0.00 | 78 | 1016.1 |
| 20260903174437 | 31 | 276 | 0.0 | 3.2 | 0.00 | 0.05 | 0.00 | 77 | 1016.1 |
| 20260903173437 | 30 | 190 | 1.6 | 4.8 | 0.00 | 0.05 | 0.00 | 79 | 1016.2 |
| 20260903172507 | 30 | 275 | 1.6 | 3.2 | 0.00 | 0.05 | 0.00 | 80 | 1016.3 |
| 20260903171437 | 30 | 263 | 1.6 | 1.6 | 0.00 | 0.05 | 0.00 | 79 | 1016.4 |
| 20260903170437 | 30 | 217 | 0.0 | 4.8 | 0.00 | 0.05 | 0.00 | 78 | 1016.4 |
| 20260903165437 | 30 | 213 | 0.0 | 6.4 | 0.00 | 0.05 | 0.00 | 79 | 1016.3 |
| 20260903164507 | 30 | 217 | 0.0 | 4.8 | 0.00 | 0.05 | 0.00 | 80 | 1016.7 |